Regional Weather Roundup
Issued by NWS Newport/Morehead, NC

Current Version | Previous Version | Text Only | Print | Product List | Glossary On
Versions: 1 2 3 4 5 6 7 8 9 10 11 12 13 14 15 16 17 18 19 20 21 22 23 24 25 26 27 28 29 30 31 32 33 34 35 36 37 38 39 40 41 42 43 44 45 46 47 48 49 50
000
ASUS42 KMHX 071013
RWRMHX
WEATHER ROUNDUP FOR EASTERN NORTH CAROLINA
NATIONAL WEATHER SERVICE NEWPORT/MOREHEAD CITY NC
500 AM EST SUN FEB 07 2016

NOTE: "FAIR" INDICATES FEW OR NO CLOUDS BELOW 12,000 FEET
WITH NO SIGNIFICANT WEATHER AND/OR OBSTRUCTIONS TO VISIBILITY

NCZ015>017-031-032-045>047-102-103-071100-
NORTH COAST

CITY           SKY/WX    TMP DP  RH WIND       PRES   REMARKS
EDENTON        CLOUDY    40  29  66 N5        30.16F
ELIZABETH CITY CLOUDY    39  30  70 N9        30.14F
KITTY HAWK     CLOUDY    42  32  67 N12G18    30.11F
MANTEO         CLOUDY    42  34  73 NE15G24   30.12F

$$

NCZ045>047-081-094-103-104-071100-
CENTRAL COAST

CITY           SKY/WX    TMP DP  RH WIND       PRES   REMARKS
FRISCO         LGT RAIN  43  37  79 NE16G28   30.04F
SWANQUARTER      N/A     39 N/A N/A N7G17     30.06S

$$

NCZ095-097-098-100-101-071100-
SOUTHERN COAST

CITY           SKY/WX    TMP DP  RH WIND       PRES   REMARKS
BEAUFORT       RAIN      37  30  75 N20G29    30.03F
CEDAR ISLAND     N/A     41 N/A N/A N24G39    30.09F
JACKSONVILLE   LGT RAIN  37  32  82 N21       30.05F
PINEY ISLAND   MIX PCPN N/A N/A N/A MISG      30.04F
WILMINGTON     LGT RAIN  38  34  85 N20G30    30.00F


$$

NCZ011>013-027>030-043-044-078>080-089-090>093-098-071100-
COASTAL PLAIN

CITY           SKY/WX    TMP DP  RH WIND       PRES   REMARKS
AHOSKIE        CLOUDY    36  27  71 N5        30.16F
CLINTON        RAIN      37  34  92 NE9       30.11S
ELIZABETHTOWN  RAIN      36  35  94 N6        30.08R
GOLDSBORO      CLOUDY    37  37 100 N7        30.10R
GREENVILLE     LGT RAIN  37  32  81 NE7       30.13S
HAVELOCK       LGT RAIN  38  31  76 N18       30.06F
KENANSVILLE    RAIN      36  32  87 N8        30.11F
KINSTON        LGT RAIN  37  33  85 N8        30.12F
NEW BERN       LGT RAIN  38  31  76 N17G23    30.08F
RICHLANDS      CLOUDY    37  28  70 N15G23    30.07F
ROCKY MOUNT    MIX PCPN  35  33  92 N6        30.13F
WASHINGTON     RAIN      36  30  79 CALM      30.12F
WHITEVILLE     RAIN      37  35  92 N7        30.03F

$$

AMZ130-135-150-152-154-156-158-170-250-252-270-ANZ085-086-088-633-658-670-071100-
MARINE OBSERVATIONS

STATION/POSITION TIME  TEMP    WIND        PRES    WAVE   SWELL
                       AIR SEA DIR/SP/G            HT/PER HT/PER
                 (UTC) (F)     (DEG/KT/KT) (MB)    (FT/S) (FT/S)
CHESAPEAKE LIGHT 1000   41      40/ 20/ 22 1021.0
64 E VA BEACH    0950   47 54   20/ 21/ 23 1020.0    5/ 9   3/ 9
DUCK             0900   42 45   20/ 20/ 24 1020.5
2 E DUCK         0911      44                N/A     4/10   2/11
OREGON INLET     0900   43 46   10/ 13/ 20 1020.5
13E OREGON INLT  1000      47                N/A     7/ 6   2/12
HATTERAS CG      0900   44 49   10/ 26/ 32 1018.0
DIAMOND BUOY     0950   52 71   20/ 33/ 39 1014.6    8/ 6   3/11
CAPE LOOKOUT     NOT AVBL
BEAUFORT LAB     0900   39 48   10/ 19/ 29 1016.7
30 SE NEW RVR IN 0908   41 64              1013.8
30 SE NEW RVR IN 0955      64                N/A    10/ 7   2/11
27 SE WRIGHTSVLE 0908   46 68  360/ 33/ 45 1013.6
5 SE WRIGHTSVLE  0908   41 53   30/ 29/ 35 1015.7
225 S CAPE HAT   0950   64 69  100/ 23/ 27   N/A     7/11   5/11
41 SE CHARLESTON 0950   50 65   10/ 33/ 41 1010.4   11/ 8

$$



USA.gov is the U.S. government's official web portal to all federal, state and local government web resources and services.